Tracking 29487 objects as of 10-Sep-2024
HD Live streaming from Space Station
objects crossing your sky now

STARLINK-4518

Track STARLINK-4518 now!
10-day predictions
STARLINK-4518 is classified as:


NORAD ID: 53550
Int'l Code: 2022-101Z
Perigee: 546.0 km
Apogee: 547.7 km
Inclination: 53.2 °
Period: 95.4 minutes
Semi major axis: 6917 km
RCS: Unknown
Launch date: August 19, 2022
Source: United States (US)
Launch site: AIR FORCE EASTERN TEST RANGE (AFETR)
Your satellite tracking list
Your tracking list is empty




NASA's NSSDC Master Catalog

Two Line Element Set (TLE):
1 53550U 22101Z   24253.98802695  .00002504  00000-0  17529-3 0  9995
2 53550  53.2190 353.8712 0001245  80.6677 279.4456 15.08859291113926
Source of the keplerian elements: AFSPC